User: anonymous   Login
Location: Nag� el Ma?a??a
(24.0667°N, 32.8833°E)
Time: 18:19:31
(UTC+00:00)
Language:

Meteor 1-11 Rocket - Orbit

View from above orbital plane
View from above orbital plane
View from above satellite
View from above satellite

Ground track
Ground track

The orbit data is extracted from the following two-line orbital elements,

1 05918U 72022B   21333.60236485 -.00000079  00000-0 -55587-4 0  9994
2 05918  81.2379 192.4952 0059691  77.2219 283.5611 14.05895358546251
Epoch (UTC): 29 November 2021 14:27:24
Eccentricity: 0.0059691
inclination: 81.2379°
perigee height: 830 km
apogee height: 917 km
right ascension of ascending node: 192.4952°
argument of perigee: 77.2219°
revolutions per day: 14.05895358
mean anomaly at epoch: 283.5611°
orbit number at epoch: 54625

The dashed part of the orbit path shows where the satellite is in the earth's shadow,  

DLR